Regional Weather Roundup
Issued by NWS

Home | Current Version | Previous Version | Graphics & Text | Print | Product List | Glossary On
Versions: 1 2 3 4 5 6 7 8 9 10 11 12 13 14 15 16 17 18 19 20 21 22 23 24 25 26 27 28 29 30 31 32 33 34 35 36 37 38 39 40 41 42 43 44 45 46 47 48 49 50
000
ASUS43 KBIS 240259
RWRND

NORTH DAKOTA REGIONAL WEATHER ROUNDUP
NATIONAL WEATHER SERVICE BISMARCK ND
900 PM CST SUN NOV 23 2014

NOTE: "FAIR" INDICATES FEW OR NO CLOUDS BELOW 12,000 FEET WITH NO
SIGNIFICANT WEATHER AND/OR OBSTRUCTIONS TO VISIBILITY.


NDZ001>003-009>011-017-240400-
NORTHWEST NORTH DAKOTA

CITY           SKY/WX    TMP DP  RH WIND       PRES   REMARKS
WILLISTON      CLEAR     12   8  84 N6        29.81S WCI   3
MINOT          CLOUDY    14   8  77 NW24G32   29.73R WCI  -5
$$

NDZ018>021-031>035-040>046-240400-
SOUTHWEST NORTH DAKOTA

CITY           SKY/WX    TMP DP  RH WIND       PRES   REMARKS
BISMARCK       FLURRIES  21  11  65 N22G33    29.69F WCI   5
GARRISON         N/A     17  11  77 NW25G32   29.72R WCI  -1
HETTINGER ARPT CLOUDY    22  16  78 NW23G31   29.71S WCI   6
$$

NDZ004>008-012>016-024-026-027-054-240400-
NORTHEAST NORTH DAKOTA

CITY           SKY/WX    TMP DP  RH WIND       PRES   REMARKS
GRAND FORKS    FLURRIES  18  13  80 NW24G30   29.59S WCI   0
GRND FRKS AFB  LGT SNOW  16  14  93 N13       29.60R FOG     WCI   2
DEVILS LAKE    CLOUDY    14   3  62 N18G24    29.62R WCI  -3
$$

NDZ022-023-025-028>030-036>039-047>053-240400-
SOUTHEAST NORTH DAKOTA

CITY           SKY/WX    TMP DP  RH WIND       PRES   REMARKS
FARGO          CLOUDY    20  16  84 NW22G31   29.57R WCI   3
$$




USA.gov is the U.S. government's official web portal to all federal, state and local government web resources and services.